Wetbulb
55.05 55.11 55.04 54.95 55.01 54.92 55.11 54.98 55.09 55.12 55.15 55.15 55.39 55.39 55.45 55.72 55.59 50.55 45.61 52.58 55.37 60.16 61.64 56.65 55.07 54.27 54.76 51.68 52.06 49.71 40.57 40.51 42.53 44.61 47.18 50.81 49.65 54.19 55.26 53.55 55.41 59.30 68.49 69.25 69.99
54.66 54.64 54.66 54.68 54.55 54.50 54.72 54.57 54.75 54.66 54.60 54.90 54.95 54.83 55.08 55.67 50.10 47.45 54.16 61.04 63.60 64.87 54.76 51.58 51.03 52.18 48.87 50.15 50.04 46.82 40.70 42.88 46.92 48.02 47.61 50.38 51.88 53.05 52.51 52.16 52.18 66.44 69.88 70.71 70.25
54.22 54.33 54.27 54.09 54.09 54.29 54.22 54.55 54.66 54.73 54.56 54.15 54.30 53.76 54.19 54.02 46.17 50.23 62.82 64.27 63.61 63.43 53.80 52.21 51.30 49.24 46.19 50.85 49.34 46.74 44.49 47.83 48.40 49.49 50.43 50.45 50.79 53.20 51.97 49.33 51.16 57.37 69.89 70.51 69.43
54.22 54.23 54.09 53.82 53.81 53.88 53.84 53.92 54.34 54.74 54.57 53.85 53.75 53.98 53.71 50.01 38.95 55.22 62.21 63.12 64.73 58.51 53.58 50.80 48.01 42.26 42.33 44.06 50.64 46.15 49.38 49.68 49.70 50.65 49.62 48.56 49.86 49.61 48.80 50.74 54.05 54.32 67.08 70.90 70.25
53.69 53.88 53.57 53.41 53.35 53.65 54.00 53.74 54.03 54.02 53.92 53.44 53.57 53.85 50.34 44.29 45.74 58.55 63.07 63.48 57.97 55.51 52.35 51.13 47.03 43.62 40.89 45.02 47.78 47.43 49.44 50.69 49.89 49.54 49.23 49.71 48.80 48.86 47.65 51.23 54.04 54.39 58.09 65.51 67.98
53.59 53.41 53.21 53.17 53.64 53.98 54.03 54.10 54.08 54.00 53.43 53.52 53.39 53.55 47.54 38.99 52.68 58.27 60.21 58.88 56.65 55.65 56.17 54.61 52.07 49.41 45.16 44.78 44.88 47.89 49.10 50.28 50.90 49.16 48.47 47.71 48.35 47.74 49.92 51.27 52.85 53.27 54.50 56.07 60.83
53.65 53.50 53.36 53.50 53.63 53.96 54.08 53.87 53.73 53.67 53.95 53.75 53.56 52.00 46.86 43.30 53.63 55.52 54.13 51.01 52.48 54.59 52.66 55.20 55.75 52.06 48.42 45.05 49.48 48.92 45.99 48.39 49.41 49.80 50.00 49.25 45.90 46.89 50.41 50.15 50.21 51.41 52.13 53.34 54.42
53.23 53.00 53.05 53.23 53.52 53.79 54.20 53.91 53.60 53.91 54.47 54.41 54.49 51.53 42.87 53.27 53.34 51.84 52.96 52.27 53.48 52.89 51.79 52.51 53.33 51.73 49.83 50.56 49.80 46.54 45.39 41.43 46.83 49.69 50.62 49.09 44.81 49.38 50.87 49.12 49.01 50.28 51.11 52.01 52.37
52.76 52.40 52.59 53.02 53.34 53.60 53.40 53.07 54.57 55.24 54.84 54.74 50.87 48.44 44.22 57.96 53.86 55.59 53.53 51.06 51.95 52.34 51.88 54.23 51.84 48.12 48.63 43.91 41.58 42.90 38.84 40.46 43.94 49.49 49.32 48.63 46.17 50.08 51.45 48.81 47.71 49.00 49.54 50.51 50.37
52.70 52.24 52.15 52.47 52.90 52.73 52.32 53.09 55.58 53.73 53.36 54.88 53.20 46.64 49.58 50.19 54.84 55.33 53.89 52.94 50.03 50.19 48.48 47.17 45.07 42.21 41.99 39.91 34.45 37.96 39.23 41.62 42.04 46.85 48.37 46.33 46.92 50.34 50.01 50.64 49.80 48.01 49.54 49.48 50.17
52.78 52.30 51.93 52.01 52.30 51.65 49.91 47.96 47.34 44.76 48.66 47.62 47.70 47.41 50.46 54.27 55.88 54.17 55.88 54.58 53.75 50.38 43.96 44.27 38.28 36.81 39.18 42.58 43.80 43.25 42.15 41.66 44.81 48.08 46.64 45.72 46.58 48.70 50.17 50.41 49.88 48.27 48.66 48.80 49.36
52.24 52.13 52.20 51.95 51.46 51.19 49.25 46.78 48.87 47.96 41.97 48.42 47.87 47.85 50.22 51.03 46.47 49.51 52.53 48.39 47.99 43.34 46.35 43.74 37.39 42.34 45.40 44.84 42.95 42.32 40.12 39.95 43.71 46.68 45.66 45.11 45.63 48.74 50.57 50.34 50.74 49.07 48.58 49.31 49.99
51.21 51.34 51.70 51.47 50.71 50.68 50.43 51.26 52.58 52.05 40.94 44.52 47.73 47.21 47.93 49.88 46.27 47.09 49.89 47.15 43.62 41.30 42.42 40.14 43.67 48.07 44.45 42.50 41.75 41.17 39.05 39.96 40.55 44.61 45.64 43.76 41.91 44.64 49.32 51.45 51.39 51.10 51.07 50.40 50.59
50.90 50.88 51.11 50.59 47.52 47.97 49.50 53.00 52.37 52.88 35.18 41.26 47.90 49.63 51.70 51.63 47.94 54.30 52.57 47.50 42.98 40.74 42.20 40.98 45.90 45.18 44.01 42.79 43.05 38.63 44.37 43.48 42.08 40.01 35.52 43.09 34.11 41.72 46.25 48.71 51.21 50.44 50.37 50.63 50.98
50.58 50.75 50.73 50.22 44.79 45.73 52.50 54.28 51.65 48.52 27.91 45.95 45.82 52.91 47.92 47.39 48.18 49.31 53.23 50.21 42.91 42.11 42.48 39.17 40.42 42.37 41.17 42.28 45.15 41.27 46.33 44.11 43.34 39.11 37.89 38.61 35.66 39.37 45.46 46.35 48.80 50.26 50.12 50.97 51.40
50.35 50.50 49.90 47.58 48.01 50.77 53.35 51.49 48.30 36.14 29.23 40.73 42.98 40.84 39.60 41.52 42.57 45.74 45.66 50.25 49.26 43.38 44.22 41.31 45.76 44.39 44.01 45.33 45.43 47.19 43.70 42.93 41.54 38.78 31.96 36.81 36.27 36.82 41.20 45.14 48.36 50.95 50.18 51.81 51.75
50.15 49.78 47.87 48.30 45.56 52.69 52.09 45.46 33.05 29.90 41.93 37.82 36.74 39.06 37.70 37.56 38.23 39.51 38.03 37.04 36.64 33.09 34.13 39.73 40.70 44.83 46.38 40.81 43.60 42.85 38.71 32.11 29.82 29.52 28.86 39.12 36.43 38.21 44.14 48.52 49.88 50.02 51.01 51.77 52.48
48.84 48.13 48.56 51.68 51.84 51.62 46.51 37.44 27.70 37.28 36.70 39.66 38.03 37.21 34.24 36.46 36.30 37.29 35.51 32.92 38.10 37.92 33.75 31.38 29.89 40.60 44.90 41.80 38.41 36.90 36.48 31.75 24.30 25.39 30.33 39.84 33.49 38.38 46.72 48.93 51.19 51.98 52.07 52.66 52.55
47.42 45.53 46.97 52.13 53.68 50.20 40.11 31.10 33.27 37.44 38.59 36.17 36.21 32.53 32.32 35.68 35.39 34.64 33.75 33.35 36.68 40.04 33.70 33.55 34.14 43.21 44.18 45.36 43.38 39.51 34.53 39.70 33.21 36.04 32.37 33.91 39.32 43.55 46.67 47.41 48.47 48.84 49.80 49.47 51.25
43.37 43.32 46.51 53.61 53.50 46.59 36.06 34.83 38.33 40.87 39.97 37.91 30.74 33.97 28.87 32.09 31.95 32.52 32.61 37.24 36.14 40.45 42.54 37.54 31.66 40.03 43.02 44.70 43.87 41.07 44.29 34.78 31.43 26.45 23.92 31.89 34.57 36.25 43.50 45.73 47.45 47.81 47.94 48.93 51.83
42.84 40.47 49.63 51.88 50.06 41.36 33.32 37.28 38.24 41.96 41.57 37.22 33.85 32.06 32.59 31.52 32.78 31.55 32.66 35.81 39.35 40.27 42.54 40.14 36.52 35.30 39.35 38.69 37.54 37.30 37.42 38.13 36.33 34.72 26.90 26.15 31.41 43.97 44.44 45.92 47.00 50.12 48.42 49.63 55.10
40.43 35.83 49.63 51.57 38.87 39.93 36.41 37.63 40.50 40.17 42.22 39.73 38.68 36.14 33.67 33.71 31.65 32.06 33.79 35.43 41.16 40.55 36.80 39.58 34.59 29.46 34.05 40.72 43.82 41.07 38.94 38.86 30.71 30.33 34.25 31.86 32.38 47.17 47.96 47.69 49.10 53.08 50.49 60.63 60.84
37.37 40.31 50.42 47.26 33.30 33.32 36.98 37.46 39.39 39.94 39.67 38.05 36.10 37.10 37.56 32.86 29.49 33.62 35.82 40.19 41.46 40.45 38.34 39.19 34.28 25.17 28.95 38.46 40.03 36.24 37.30 40.88 39.77 39.02 33.36 29.87 34.00 46.24 49.53 49.14 50.61 54.87 58.58 60.06 60.98
39.21 36.60 40.99 41.99 40.69 35.49 33.71 34.58 35.78 41.38 39.47 38.84 36.56 37.68 34.94 32.47 34.49 32.17 33.74 39.37 41.11 39.39 44.40 41.44 33.64 31.03 25.42 31.75 36.23 34.14 37.58 39.22 37.47 32.60 33.26 35.02 37.98 42.33 44.09 47.66 49.95 52.13 56.66 58.78 60.27
42.20 36.71 38.84 31.74 33.40 35.34 35.55 36.19 34.02 34.29 38.35 38.16 35.45 35.25 33.03 29.23 31.40 32.24 35.60 37.26 39.92 42.07 42.05 38.74 27.66 33.09 34.93 36.64 35.96 35.19 35.69 37.16 34.88 36.27 34.74 39.24 40.47 43.62 46.62 49.08 48.73 52.29 55.67 57.53 60.29
37.26 35.35 36.88 34.22 36.53 34.85 35.38 33.67 34.05 34.89 34.52 33.83 32.80 35.29 35.71 32.75 34.16 32.99 34.62 34.07 34.03 37.46 37.04 39.68 33.07 33.18 30.97 35.64 37.42 34.98 36.63 37.71 38.73 38.52 38.47 40.57 41.64 48.14 50.66 51.74 52.01 53.77 55.34 56.55 58.86
41.15 41.56 36.46 34.98 33.64 31.90 33.30 34.24 34.47 35.88 37.20 37.65 36.71 35.43 36.00 37.02 39.30 38.49 37.99 37.73 37.21 34.98 33.88 33.76 31.86 28.84 24.33 34.38 33.80 30.46 37.95 39.35 40.26 41.41 41.20 39.13 42.76 47.28 48.43 50.26 51.60 52.72 53.16 52.64 54.00
MSLP
1020.85 1020.40 1019.96 1019.49 1019.03 1018.58 1018.15 1017.70 1017.23 1016.84 1016.38 1015.88 1015.43 1015.03 1014.56 1014.04 1013.32 1012.71 1011.15 1008.54 1008.43 1008.54 1008.60 1008.70 1008.65 1008.33 1008.26 1008.38 1008.15 1007.82 1007.74 1006.15 1005.07 1003.92 1002.46 1000.78 999.70 998.07 997.64 996.72 996.19 996.26 996.90 998.31 999.32
1020.94 1020.45 1019.96 1019.46 1018.97 1018.47 1017.99 1017.54 1017.10 1016.64 1016.22 1015.80 1015.36 1014.96 1014.40 1013.95 1013.20 1010.76 1007.45 1007.08 1007.06 1007.61 1008.04 1008.29 1008.42 1008.28 1008.28 1007.54 1007.77 1007.35 1006.51 1005.07 1004.30 1003.12 1002.07 1001.04 999.78 998.60 998.75 997.93 997.04 997.52 997.74 998.33 999.28
1020.76 1020.23 1019.69 1019.19 1018.69 1018.16 1017.69 1017.17 1016.68 1016.22 1015.81 1015.47 1015.19 1014.90 1014.63 1014.11 1012.30 1007.24 1005.95 1005.86 1006.02 1007.02 1007.51 1007.88 1008.08 1008.19 1007.60 1007.09 1006.73 1006.04 1004.72 1004.48 1003.22 1002.62 1002.05 1001.02 999.75 998.92 999.14 998.58 997.67 997.88 998.08 998.46 999.10
1020.70 1020.08 1019.47 1018.86 1018.31 1017.76 1017.27 1016.78 1016.29 1015.88 1015.51 1015.17 1014.92 1014.64 1014.28 1014.18 1010.82 1005.85 1005.97 1006.00 1005.87 1006.46 1007.15 1007.50 1007.80 1008.11 1007.35 1006.55 1005.79 1005.19 1004.25 1003.80 1003.07 1002.41 1001.61 1000.70 1000.06 998.92 999.14 998.80 997.99 997.24 997.94 998.38 998.83
1020.60 1019.94 1019.24 1018.57 1017.91 1017.23 1016.63 1016.12 1015.71 1015.36 1015.07 1014.84 1014.64 1014.37 1013.96 1012.80 1008.66 1005.85 1005.83 1006.06 1006.29 1006.41 1006.54 1006.80 1007.00 1007.22 1006.87 1005.80 1005.53 1004.43 1003.79 1003.10 1002.60 1001.87 1000.86 1000.77 999.84 999.39 999.06 998.66 998.00 997.79 997.75 998.10 998.74
1020.20 1019.53 1018.84 1018.08 1017.33 1016.57 1015.96 1015.34 1014.81 1014.49 1014.33 1014.28 1014.20 1014.16 1013.78 1011.26 1005.38 1004.31 1005.32 1005.80 1005.68 1006.10 1006.16 1006.18 1005.85 1005.85 1005.78 1005.23 1004.91 1003.79 1003.25 1002.30 1001.70 1000.97 1000.64 1000.42 999.37 999.85 998.54 998.60 998.07 997.94 998.05 998.24 998.64
1020.15 1019.43 1018.64 1017.81 1016.91 1016.07 1015.33 1014.86 1014.46 1013.95 1013.53 1013.37 1013.43 1013.57 1012.76 1007.84 1004.82 1005.13 1005.02 1005.06 1004.88 1005.16 1005.24 1005.05 1005.11 1005.24 1004.88 1004.89 1003.79 1003.56 1003.12 1002.09 1000.66 1000.71 999.78 1000.19 999.64 999.22 998.31 998.54 998.41 998.00 998.62 998.46 998.69
1020.19 1019.45 1018.60 1017.72 1016.69 1015.68 1014.64 1013.58 1013.66 1013.25 1013.07 1012.83 1012.82 1012.78 1010.50 1005.53 1004.65 1004.62 1004.18 1004.22 1004.35 1004.42 1004.64 1004.57 1004.45 1004.53 1004.60 1004.33 1003.64 1003.65 1003.08 1001.96 1000.83 1000.23 999.67 1000.25 998.44 998.21 998.24 998.69 998.62 998.30 998.47 999.04 998.89
1020.02 1019.24 1018.36 1017.32 1016.32 1015.21 1014.06 1012.73 1011.83 1011.72 1012.16 1012.54 1012.60 1012.08 1008.19 1004.46 1004.14 1003.25 1003.64 1003.62 1003.54 1003.80 1004.04 1004.27 1004.38 1004.42 1004.59 1004.66 1004.48 1003.46 1002.46 1001.70 1000.84 1000.20 1000.01 1000.02 997.55 997.92 997.94 998.38 998.48 998.52 998.48 998.84 999.08
1019.78 1018.93 1018.02 1016.86 1015.92 1015.08 1013.55 1011.91 1010.78 1011.38 1011.74 1011.90 1011.40 1011.31 1006.92 1003.81 1002.50 1002.59 1002.74 1003.24 1003.47 1003.50 1003.78 1004.22 1004.70 1004.59 1004.58 1005.05 1003.60 1003.88 1002.83 1001.97 1000.56 1000.13 999.77 999.36 997.22 998.06 997.50 997.82 998.14 998.46 998.46 998.66 998.98
1019.66 1018.78 1017.78 1016.71 1015.38 1014.72 1014.03 1012.46 1011.17 1011.11 1010.88 1009.94 1007.84 1006.28 1004.18 1003.32 1002.69 1002.47 1002.40 1002.59 1003.02 1003.56 1003.90 1004.26 1004.72 1003.82 1004.26 1004.24 1003.68 1003.51 1002.55 1001.52 1000.20 999.85 999.63 998.90 997.43 997.44 997.19 997.33 997.72 998.12 998.45 998.43 998.54
1019.47 1018.66 1017.57 1016.46 1014.76 1013.74 1013.84 1012.76 1010.76 1010.21 1007.48 1006.86 1005.04 1004.74 1003.74 1003.66 1002.95 1002.17 1002.68 1003.01 1003.01 1003.46 1004.12 1004.42 1003.11 1003.56 1004.06 1003.53 1003.00 1002.76 1002.01 1001.08 1000.15 999.76 999.48 998.79 997.40 996.75 996.50 996.44 996.64 997.26 997.76 998.18 998.54
1019.29 1018.16 1017.74 1016.01 1014.08 1012.89 1012.58 1011.04 1009.70 1009.59 1009.42 1003.81 1002.87 1002.25 1001.40 1001.43 1001.66 1001.10 1001.72 1001.77 1002.30 1003.12 1003.77 1003.81 1002.57 1002.93 1002.86 1002.57 1002.15 1001.63 1001.24 1000.70 1000.23 999.80 998.94 998.76 997.65 996.88 995.95 995.38 995.64 995.98 996.40 997.20 997.64
1018.87 1018.02 1017.04 1016.96 1013.77 1012.92 1011.43 1009.88 1009.39 1009.54 1009.25 1005.03 1002.31 1001.44 1001.28 1001.20 1001.80 1001.13 1000.90 1001.63 1002.34 1003.35 1003.54 1003.22 1002.39 1002.33 1001.90 1001.76 1001.50 1000.89 1000.44 1000.31 1000.21 1000.04 999.27 998.64 997.88 996.84 996.08 995.46 995.06 994.90 995.60 996.45 996.79
1018.47 1017.78 1016.92 1016.94 1015.82 1013.46 1010.86 1009.98 1009.67 1009.80 1008.74 1003.74 1003.67 1002.46 1002.72 1003.17 1003.18 1002.40 1003.04 1003.80 1003.44 1004.09 1005.01 1004.36 1003.82 1002.52 1002.13 1002.05 1001.74 1001.39 1001.05 1001.34 1001.56 1001.12 1000.32 998.92 998.41 996.86 995.97 995.43 995.11 994.38 995.17 995.62 996.03
1018.03 1016.82 1016.83 1015.06 1014.56 1012.00 1010.83 1010.12 1009.97 1010.22 1007.64 1005.79 1005.39 1004.60 1004.30 1004.17 1003.53 1003.19 1003.04 1002.79 1002.70 1003.37 1003.59 1003.25 1002.78 1003.16 1001.51 1000.80 1001.83 1001.98 1001.71 1001.92 1002.86 1002.22 1001.03 999.35 998.43 997.09 996.02 995.54 995.01 994.26 994.47 995.00 995.32
1017.55 1016.24 1015.76 1015.26 1012.84 1010.75 1010.69 1010.46 1010.38 1009.26 1007.52 1006.11 1005.73 1005.93 1006.33 1005.67 1004.88 1004.93 1004.32 1003.99 1004.68 1004.58 1003.99 1003.71 1002.99 1001.37 1001.41 1001.30 1000.91 1001.18 1001.50 1003.48 1003.89 1003.18 1001.74 999.48 997.98 996.63 995.06 994.53 994.16 993.90 993.53 993.57 994.20
1017.13 1015.50 1013.59 1012.59 1011.67 1011.43 1011.02 1011.06 1010.60 1008.95 1008.31 1007.73 1007.70 1006.87 1007.08 1006.93 1006.50 1006.06 1005.64 1004.87 1004.90 1005.05 1004.28 1003.55 1002.22 1001.36 1000.83 1000.99 1001.20 1001.46 1002.43 1002.79 1003.80 1003.27 1001.42 999.90 998.12 995.97 994.53 994.02 993.23 992.98 993.11 992.84 992.85
1016.82 1014.22 1012.90 1010.58 1010.61 1010.65 1011.46 1011.07 1009.55 1009.22 1008.53 1008.08 1007.82 1007.76 1007.63 1008.06 1008.17 1007.63 1006.96 1005.88 1005.33 1005.71 1006.67 1004.88 1002.59 1001.63 1001.38 1001.07 1001.88 1001.58 1002.44 1002.92 1002.94 1003.23 1002.79 1001.48 998.26 995.85 994.28 993.43 993.32 992.82 992.40 992.40 992.49
1017.48 1015.04 1012.14 1010.09 1010.07 1010.56 1011.35 1010.78 1010.06 1009.17 1008.68 1008.38 1008.68 1009.09 1009.12 1008.74 1008.80 1008.81 1007.57 1006.16 1005.77 1005.30 1006.26 1006.10 1004.41 1002.07 1001.20 1001.29 1001.58 1001.90 1001.66 1004.00 1004.16 1003.83 1002.74 999.95 998.45 996.14 995.28 994.88 993.89 992.78 992.16 991.84 991.52
1017.33 1014.92 1010.74 1009.96 1009.95 1010.68 1010.98 1010.62 1010.11 1009.20 1008.76 1009.04 1009.20 1009.39 1009.66 1009.92 1010.09 1009.38 1008.23 1007.61 1006.94 1005.66 1005.60 1005.77 1005.15 1003.15 1002.44 1001.27 1001.23 1002.03 1002.70 1004.10 1003.73 1003.73 1002.66 1000.71 997.97 996.35 995.95 995.09 995.36 994.04 991.82 992.05 991.68
1018.29 1015.52 1010.95 1010.50 1010.92 1010.78 1010.93 1011.02 1010.31 1009.47 1009.75 1009.68 1009.74 1009.95 1010.23 1010.78 1010.40 1009.76 1009.05 1008.59 1007.55 1007.02 1005.87 1005.62 1005.27 1004.17 1002.52 1000.94 1001.59 1002.09 1002.61 1002.60 1003.20 1003.28 1002.40 1000.98 998.29 997.60 996.61 995.72 995.81 993.55 992.43 992.66 992.40
1019.16 1015.71 1011.66 1011.52 1012.08 1012.62 1012.18 1011.59 1011.10 1010.16 1010.10 1009.84 1010.24 1010.54 1010.90 1011.32 1010.96 1009.45 1008.48 1007.94 1007.68 1007.10 1006.06 1005.96 1005.63 1004.65 1002.63 1002.36 1002.95 1003.77 1003.28 1002.42 1002.30 1001.84 1000.02 1000.69 999.19 998.26 997.46 996.62 996.11 994.15 993.30 993.12 993.22
1019.70 1016.44 1014.24 1013.33 1013.76 1014.00 1013.27 1012.45 1011.65 1011.38 1010.74 1010.78 1010.79 1010.66 1011.28 1011.30 1010.58 1009.26 1007.76 1007.02 1006.81 1006.92 1006.49 1006.36 1005.85 1005.45 1004.96 1003.84 1003.42 1002.92 1002.20 1002.14 1002.04 1001.11 1000.89 1000.58 999.64 999.14 998.31 998.35 996.32 994.39 994.08 994.30 994.30
1019.70 1017.99 1017.48 1016.21 1015.52 1015.20 1014.31 1013.54 1012.71 1011.72 1011.66 1011.46 1010.99 1011.50 1011.54 1011.07 1010.17 1009.20 1008.43 1006.96 1006.43 1006.23 1006.24 1006.02 1006.07 1005.73 1005.10 1004.09 1003.18 1002.50 1001.64 1000.74 1000.59 1000.82 1001.60 999.64 999.13 999.04 999.45 999.10 997.56 996.00 996.06 995.46 995.37
1020.38 1019.85 1018.92 1018.19 1016.96 1015.80 1014.72 1014.18 1013.44 1012.65 1012.73 1012.00 1012.21 1011.50 1011.50 1010.86 1010.32 1009.16 1008.98 1007.96 1007.19 1006.22 1005.90 1005.92 1005.82 1005.67 1004.78 1003.56 1002.41 1001.55 1000.74 999.96 999.01 999.46 1000.57 999.40 999.41 999.19 999.15 998.52 997.58 997.38 997.50 997.71 997.54
1021.14 1020.55 1019.94 1018.67 1017.61 1016.74 1015.61 1015.11 1014.32 1013.60 1012.82 1012.71 1012.06 1011.87 1010.92 1010.12 1009.74 1008.63 1007.90 1006.93 1006.63 1006.91 1006.43 1006.66 1005.87 1005.62 1004.83 1003.58 1002.52 1000.75 998.78 997.35 997.23 997.38 998.07 998.16 998.31 998.75 998.90 999.46 999.03 999.31 999.42 1000.01 999.81
Wind_Speed
18 18 18 19 20 20 20 20 20 20 20 20 20 19 21 21 23 16 13 15 13 25 15 9 10 11 8 8 8 5 5 11 13 15 12 12 11 15 7 7 4 4 8 22 20
19 19 18 19 19 19 19 19 19 19 19 19 19 20 22 22 19 18 15 17 17 14 6 7 8 10 6 9 7 9 7 19 13 12 11 13 18 19 6 10 5 11 21 21 21
19 19 20 20 21 20 20 20 20 19 19 19 18 18 19 18 8 8 9 9 23 13 8 7 9 7 13 12 12 7 20 17 18 16 19 20 23 18 13 7 7 10 18 21 20
21 22 23 23 23 23 23 23 22 21 20 20 18 17 17 7 7 3 10 8 13 13 10 8 7 3 5 9 15 19 19 23 19 20 21 18 11 17 5 10 8 7 13 14 13
23 23 24 25 25 25 24 24 24 23 21 19 16 14 9 5 15 7 14 12 8 6 13 13 11 8 8 7 14 19 18 20 18 23 25 18 19 19 9 12 8 1 6 16 14
23 24 25 26 26 25 24 24 23 22 22 18 15 10 5 10 10 11 14 11 9 11 12 12 7 12 8 11 18 10 16 18 19 23 21 23 22 7 19 11 10 4 7 6 8
23 24 25 26 27 27 27 24 22 22 20 16 11 6 9 26 11 4 5 5 7 12 14 12 14 13 6 10 19 18 19 18 24 15 20 8 18 20 16 8 11 9 6 9 8
23 24 26 27 28 29 29 30 22 22 18 14 9 8 12 9 10 11 11 9 9 9 11 11 12 11 11 10 20 16 14 20 12 18 20 7 27 22 13 9 12 10 6 7 8
25 25 27 28 29 30 30 32 30 14 9 6 5 5 14 11 7 12 12 9 10 12 9 10 8 7 7 8 9 9 18 17 15 16 11 14 29 17 14 9 10 9 8 6 7
27 27 28 30 30 29 32 30 12 4 5 9 7 5 10 6 8 6 10 9 7 8 11 7 5 7 6 6 16 10 12 14 21 17 18 15 27 19 11 14 15 11 12 8 9
28 28 29 31 32 27 18 9 6 2 4 10 16 13 21 17 21 6 7 9 7 6 10 11 8 16 10 16 19 18 18 20 20 16 22 18 23 21 18 19 17 12 9 10 11
29 29 31 31 35 33 5 3 6 9 20 23 29 28 31 27 30 28 19 10 9 12 10 12 21 16 14 19 20 22 23 23 21 19 15 16 26 20 18 19 23 16 10 12 9
29 30 26 32 37 11 6 10 7 9 6 26 12 11 12 18 23 23 17 16 15 13 13 16 21 16 21 22 22 21 19 17 20 18 21 17 20 14 11 21 22 20 18 11 13
29 28 29 27 13 9 5 9 7 6 4 10 9 9 14 5 5 20 9 10 9 14 16 18 19 23 20 16 23 21 19 21 19 15 14 10 15 15 8 16 17 25 19 15 13
31 29 29 22 8 5 9 12 8 4 6 7 12 12 23 5 8 8 6 14 4 3 4 15 24 27 9 15 20 16 13 11 14 14 15 16 11 10 6 18 14 19 16 18 15
34 34 29 11 5 14 12 10 5 3 8 3 16 22 26 24 24 20 18 3 10 9 13 17 23 22 13 18 21 16 6 8 11 11 12 16 14 16 13 17 17 14 11 21 17
36 37 26 7 6 7 10 6 3 5 20 15 27 22 19 19 24 24 26 18 7 8 7 13 21 29 10 8 18 22 9 4 4 5 11 14 15 14 10 15 18 16 18 17 18
36 38 9 9 10 12 3 4 5 8 15 21 19 23 15 24 21 24 22 19 12 13 10 9 15 11 4 13 8 3 8 8 6 6 10 16 17 13 20 19 15 18 20 24 19
35 8 7 7 10 1 4 3 4 15 17 17 18 16 22 17 16 20 17 20 15 5 4 7 6 10 12 3 3 5 6 7 5 6 4 4 23 16 21 22 19 21 20 17 14
11 6 7 5 3 2 1 8 13 16 18 14 15 12 17 21 14 15 13 10 17 11 13 4 7 9 4 4 15 11 3 6 3 5 5 8 11 11 1 8 15 23 22 20 19
4 7 3 2 2 1 5 9 17 18 16 12 15 17 14 15 15 16 5 20 13 9 4 2 4 5 5 4 5 4 5 6 3 4 5 8 12 6 4 5 12 23 21 8 2
5 5 5 9 5 5 4 12 17 21 17 9 11 13 7 8 7 10 6 9 20 14 5 2 1 5 7 11 2 3 4 5 5 7 6 6 8 3 7 6 15 22 11 11 10
7 6 4 10 5 10 13 17 20 20 9 11 11 14 4 3 10 11 7 8 14 10 2 3 3 5 8 8 11 3 8 5 9 2 13 8 5 15 15 11 17 7 14 13 14
5 6 6 8 11 15 14 18 17 15 14 16 15 15 5 15 14 13 22 11 5 10 21 4 4 4 3 10 9 10 10 4 4 6 3 10 13 8 18 18 17 8 11 9 12
3 4 7 8 11 18 15 14 17 15 13 14 7 17 20 14 19 15 18 19 16 6 5 6 3 4 9 15 17 17 19 17 6 7 5 4 6 5 8 14 9 7 8 4 13
5 6 6 13 14 16 14 13 18 19 15 11 16 21 17 13 15 12 18 16 12 15 4 3 4 7 8 15 9 16 18 18 20 16 15 13 4 5 3 3 4 6 4 5 4
5 7 3 8 11 12 12 19 21 19 7 18 19 15 11 13 19 23 22 23 20 15 18 11 5 5 5 9 17 10 9 18 18 15 15 7 7 7 3 6 3 11 13 14 13
Wind_Direction
347 343 339 335 332 328 326 324 322 322 320 319 320 320 318 317 311 300 244 220 197 239 265 256 267 282 261 229 236 258 231 246 236 243 255 285 288 289 291 346 20 72 126 147 144
345 341 337 332 328 324 321 318 314 313 313 313 314 319 318 319 306 269 240 230 232 204 225 244 236 239 240 209 228 193 222 237 250 255 257 269 277 279 317 306 286 101 110 132 145
342 338 334 332 328 324 320 316 314 311 310 311 312 314 315 317 294 245 171 211 225 200 207 246 286 304 249 225 224 219 233 244 255 248 258 265 277 288 303 310 233 147 143 151 156
342 339 337 333 330 326 322 319 316 313 311 311 312 313 313 304 298 129 159 149 142 168 198 215 213 233 261 236 219 246 238 240 255 261 269 269 306 294 321 254 260 232 160 160 167
343 339 335 331 327 324 319 316 314 312 309 308 308 312 322 225 247 160 166 164 156 172 190 201 191 181 225 228 248 258 241 250 245 246 258 272 262 268 288 296 274 14 41 172 176
339 336 332 328 325 321 316 312 309 307 307 305 302 298 264 264 241 164 180 170 196 196 207 204 222 201 279 237 243 278 269 258 242 245 244 247 260 273 274 275 266 292 119 95 139
337 334 329 325 320 316 312 308 305 302 299 293 281 253 243 250 302 267 269 269 211 212 232 233 224 245 211 267 242 259 271 275 255 265 254 268 256 241 250 266 267 261 188 164 195
335 331 326 322 319 318 317 312 308 297 288 283 266 229 251 255 255 250 253 246 239 230 263 246 268 255 246 266 284 280 269 254 255 254 259 233 250 249 249 245 251 256 241 196 200
336 332 328 323 322 321 319 313 306 296 250 243 203 227 262 297 226 229 235 257 221 241 235 266 289 266 284 269 270 252 255 261 265 245 247 226 256 241 235 221 238 245 241 225 217
334 331 329 325 324 325 321 312 295 136 196 192 248 248 262 244 229 173 202 212 253 247 224 205 261 238 246 231 235 238 254 253 256 264 233 243 257 245 214 233 243 244 240 233 223
334 332 330 326 322 323 332 342 340 17 216 244 245 233 280 288 317 191 218 206 217 274 255 202 217 228 216 229 243 263 265 253 253 241 243 247 254 242 221 216 232 222 222 232 231
332 330 329 327 319 318 291 266 2 268 299 260 266 259 262 261 273 274 276 237 198 230 249 254 233 234 234 246 240 235 245 258 272 272 278 268 253 249 233 221 213 210 206 214 228
329 325 331 327 318 313 288 279 332 7 299 300 255 246 241 221 244 258 239 249 228 232 231 245 261 241 224 241 248 242 246 248 244 254 267 266 274 272 264 228 208 208 196 202 201
323 324 326 339 318 338 270 345 337 60 298 279 17 29 21 351 353 314 258 251 259 273 238 245 262 252 267 267 235 246 237 249 262 259 246 250 263 261 249 278 245 204 197 210 214
322 325 325 326 287 281 298 322 331 14 306 52 29 339 355 48 284 312 39 341 180 247 275 299 304 299 282 282 302 281 291 334 309 293 292 248 253 264 252 232 262 196 205 211 208
323 320 329 318 195 248 285 309 326 231 248 0 14 353 346 341 329 325 316 295 199 206 206 214 254 257 239 243 260 269 270 314 326 298 272 250 232 251 241 246 268 251 212 204 213
321 319 318 273 242 329 326 328 300 231 350 351 349 349 330 324 335 337 328 324 347 333 313 296 274 274 229 268 277 278 213 204 289 267 259 255 240 227 219 224 215 238 232 222 203
320 315 268 236 230 256 313 339 259 18 319 345 339 327 344 341 336 334 323 311 306 294 285 274 291 248 266 254 289 228 325 226 209 220 265 259 260 233 246 244 239 235 232 231 222
323 310 282 267 228 268 359 303 296 342 343 332 335 333 330 338 335 338 317 299 284 114 326 298 252 325 296 236 342 308 254 295 174 192 256 276 270 240 232 236 236 255 256 257 233
315 294 279 217 213 8 279 247 301 320 330 332 329 342 327 327 339 330 309 297 324 309 162 246 281 254 316 13 183 199 147 318 3 179 226 234 270 247 297 318 267 240 249 251 265
281 313 229 218 340 270 243 285 308 324 344 350 339 322 320 343 332 314 307 298 342 342 353 268 260 290 295 208 180 160 150 178 189 161 202 263 252 190 262 313 317 293 235 228 140
309 310 294 351 329 294 8 340 328 321 3 344 332 320 356 344 299 310 286 290 322 309 316 130 247 277 265 256 52 163 324 202 176 184 208 244 270 354 295 347 315 272 236 111 71
304 266 315 6 3 357 340 330 315 340 328 348 342 337 64 343 306 282 270 301 314 320 6 342 244 308 333 38 44 355 285 303 256 297 234 245 263 347 336 352 307 335 98 86 90
290 311 339 323 11 349 326 311 340 321 334 358 328 318 7 323 310 295 306 326 327 293 283 258 259 235 270 308 291 278 285 249 191 241 303 258 287 2 337 317 276 350 41 92 83
253 349 341 325 331 316 316 313 320 344 358 342 334 339 320 311 311 298 324 318 326 294 271 171 235 277 297 296 289 286 283 288 206 242 252 269 277 134 246 277 274 354 346 70 83
348 340 353 293 319 321 312 353 347 344 348 340 327 318 322 297 293 296 307 295 282 300 317 208 283 311 289 288 317 305 273 253 246 203 221 251 257 180 250 314 305 282 291 54 111
346 321 344 296 319 319 343 338 333 340 328 322 315 324 294 316 305 290 276 269 261 281 289 287 281 358 259 334 311 277 296 227 216 214 198 199 184 177 101 286 47 68 71 68 47